#Datum;Uhrzeit;WR;Pac;DaySum;Status;WR;Pac;DaySum;Status;Pdc1;Udc;Temp;WR;Pac;DaySum;Status;Pdc1;Udc;Temp;WR;Pac;DaySum;Status;Pdc1;Udc;Temp;WR;Pac;DaySum;Status;Pdc1;Pdc2;Udc1;Udc2;Temp;WR;Pac;DaySum;Status;Pdc1;Pdc2;Udc1;Udc2;Temp;WR;Pac;DaySum;Status;Pdc1;Udc;Temp;WR;Pac;DaySum;Status;Pdc1;Udc;Temp;WR;Pac;DaySum;Status;Pdc1;Udc;Temp
07.01.19;23:55:00;1;489;12600;0;2;0;1524;0;0;0;0;3;0;896;0;0;0;0;4;0;1204;0;0;0;0;5;0;3492;0;0;0;0;0;0;6;0;2407;0;0;0;0;0;0;7;0;1458;0;0;0;0;8;0;1472;0;0;0;0;9;0;764;0;0;0;0
07.01.19;23:50:00;1;500;12559;0;2;0;1524;0;0;0;0;3;0;896;0;0;0;0;4;0;1204;0;0;0;0;5;0;3492;0;0;0;0;0;0;6;0;2407;0;0;0;0;0;0;7;0;1458;0;0;0;0;8;0;1472;0;0;0;0;9;0;764;0;0;0;0
07.01.19;23:45:00;1;508;12517;0;2;0;1524;0;0;0;0;3;0;896;0;0;0;0;4;0;1204;0;0;0;0;5;0;3492;0;0;0;0;0;0;6;0;2407;0;0;0;0;0;0;7;0;1458;0;0;0;0;8;0;1472;0;0;0;0;9;0;764;0;0;0;0
07.01.19;23:40:00;1;434;12474;0;2;0;1524;0;0;0;0;3;0;896;0;0;0;0;4;0;1204;0;0;0;0;5;0;3492;0;0;0;0;0;0;6;0;2407;0;0;0;0;0;0;7;0;1458;0;0;0;0;8;0;1472;0;0;0;0;9;0;764;0;0;0;0
07.01.19;23:35:00;1;428;12438;0;2;0;1524;0;0;0;0;3;0;896;0;0;0;0;4;0;1204;0;0;0;0;5;0;3492;0;0;0;0;0;0;6;0;2407;0;0;0;0;0;0;7;0;1458;0;0;0;0;8;0;1472;0;0;0;0;9;0;764;0;0;0;0
07.01.19;23:30:00;1;848;12402;0;2;0;1524;0;0;0;0;3;0;896;0;0;0;0;4;0;1204;0;0;0;0;5;0;3492;0;0;0;0;0;0;6;0;2407;0;0;0;0;0;0;7;0;1458;0;0;0;0;8;0;1472;0;0;0;0;9;0;764;0;0;0;0
07.01.19;23:25:00;1;432;12340;0;2;0;1524;0;0;0;0;3;0;896;0;0;0;0;4;0;1204;0;0;0;0;5;0;3492;0;0;0;0;0;0;6;0;2407;0;0;0;0;0;0;7;0;1458;0;0;0;0;8;0;1472;0;0;0;0;9;0;764;0;0;0;0
07.01.19;23:20:00;1;432;12304;0;2;0;1524;0;0;0;0;3;0;896;0;0;0;0;4;0;1204;0;0;0;0;5;0;3492;0;0;0;0;0;0;6;0;2407;0;0;0;0;0;0;7;0;1458;0;0;0;0;8;0;1472;0;0;0;0;9;0;764;0;0;0;0
07.01.19;23:15:00;1;432;12268;0;2;0;1524;0;0;0;0;3;0;896;0;0;0;0;4;0;1204;0;0;0;0;5;0;3492;0;0;0;0;0;0;6;0;2407;0;0;0;0;0;0;7;0;1458;0;0;0;0;8;0;1472;0;0;0;0;9;0;764;0;0;0;0
07.01.19;23:10:00;1;454;12232;0;2;0;1524;0;0;0;0;3;0;896;0;0;0;0;4;0;1204;0;0;0;0;5;0;3492;0;0;0;0;0;0;6;0;2407;0;0;0;0;0;0;7;0;1458;0;0;0;0;8;0;1472;0;0;0;0;9;0;764;0;0;0;0
07.01.19;23:05:00;1;453;12194;0;2;0;1524;0;0;0;0;3;0;896;0;0;0;0;4;0;1204;0;0;0;0;5;0;3492;0;0;0;0;0;0;6;0;2407;0;0;0;0;0;0;7;0;1458;0;0;0;0;8;0;1472;0;0;0;0;9;0;764;0;0;0;0
07.01.19;23:00:00;1;472;12156;0;2;0;1524;0;0;0;0;3;0;896;0;0;0;0;4;0;1204;0;0;0;0;5;0;3492;0;0;0;0;0;0;6;0;2407;0;0;0;0;0;0;7;0;1458;0;0;0;0;8;0;1472;0;0;0;0;9;0;764;0;0;0;0
07.01.19;22:55:00;1;411;12116;0;2;0;1524;0;0;0;0;3;0;896;0;0;0;0;4;0;1204;0;0;0;0;5;0;3492;2;0;0;0;0;0;6;0;2407;2;0;0;0;0;0;7;0;1458;0;0;0;0;8;0;1472;0;0;0;0;9;0;764;0;0;0;0
07.01.19;22:50:00;1;430;12082;0;2;0;1524;0;0;0;0;3;0;896;0;0;0;0;4;0;1204;0;0;0;0;5;0;3492;2;0;0;0;0;0;6;0;2407;2;0;0;0;0;0;7;0;1458;0;0;0;0;8;0;1472;0;0;0;0;9;0;764;0;0;0;0
07.01.19;22:45:00;1;427;12046;0;2;0;1524;0;0;0;0;3;0;896;0;0;0;0;4;0;1204;0;0;0;0;5;0;3492;2;0;0;0;0;0;6;0;2407;2;0;0;0;0;0;7;0;1458;0;0;0;0;8;0;1472;0;0;0;0;9;0;764;0;0;0;0
07.01.19;22:40:00;1;832;12010;0;2;0;1524;0;0;0;0;3;0;896;0;0;0;0;4;0;1204;0;0;0;0;5;0;3492;2;0;0;0;0;0;6;0;2407;2;0;0;0;0;0;7;0;1458;0;0;0;0;8;0;1472;0;0;0;0;9;0;764;0;0;0;0
07.01.19;22:35:00;1;427;11948;0;2;0;1524;0;0;0;0;3;0;896;0;0;0;0;4;0;1204;0;0;0;0;5;0;3492;2;0;0;0;0;0;6;0;2407;2;0;0;0;0;0;7;0;1458;0;0;0;0;8;0;1472;0;0;0;0;9;0;764;0;0;0;0
07.01.19;22:30:00;1;425;11912;0;2;0;1524;0;0;0;0;3;0;896;0;0;0;0;4;0;1204;0;0;0;0;5;0;3492;2;0;0;0;0;0;6;0;2407;2;0;0;0;0;0;7;0;1458;0;0;0;0;8;0;1472;0;0;0;0;9;0;764;0;0;0;0
07.01.19;22:25:00;1;470;11876;0;2;0;1524;0;0;0;0;3;0;896;0;0;0;0;4;0;1204;0;0;0;0;5;0;3492;2;0;0;0;0;0;6;0;2407;2;0;0;0;0;0;7;0;1458;0;0;0;0;8;0;1472;0;0;0;0;9;0;764;0;0;0;0
07.01.19;22:20:00;1;471;11837;0;2;0;1524;0;0;0;0;3;0;896;0;0;0;0;4;0;1204;0;0;0;0;5;0;3492;2;0;0;0;0;0;6;0;2407;2;0;0;0;0;0;7;0;1458;0;0;0;0;8;0;1472;0;0;0;0;9;0;764;0;0;0;0
07.01.19;22:15:00;1;611;11797;0;2;0;1524;0;0;0;0;3;0;896;0;0;0;0;4;0;1204;0;0;0;0;5;0;3492;2;0;0;0;0;0;6;0;2407;2;0;0;0;0;0;7;0;1458;0;0;0;0;8;0;1472;0;0;0;0;9;0;764;0;0;0;0
07.01.19;22:10:00;1;685;11746;0;2;0;1524;0;0;0;0;3;0;896;0;0;0;0;4;0;1204;0;0;0;0;5;0;3492;2;0;0;0;0;0;6;0;2407;2;0;0;0;0;0;7;0;1458;0;0;0;0;8;0;1472;0;0;0;0;9;0;764;0;0;0;0
07.01.19;22:05:00;1;685;11688;0;2;0;1524;0;0;0;0;3;0;896;0;0;0;0;4;0;1204;0;0;0;0;5;0;3492;2;0;0;0;0;0;6;0;2407;2;0;0;0;0;0;7;0;1458;0;0;0;0;8;0;1472;0;0;0;0;9;0;764;0;0;0;0
07.01.19;22:00:00;1;608;11630;0;2;0;1524;0;0;0;0;3;0;896;0;0;0;0;4;0;1204;0;0;0;0;5;0;3492;2;0;0;0;0;0;6;0;2407;2;0;0;0;0;0;7;0;1458;0;0;0;0;8;0;1472;0;0;0;0;9;0;764;0;0;0;0
07.01.19;21:55:00;1;950;11579;0;2;0;1524;0;0;0;0;3;0;896;0;0;0;0;4;0;1204;0;0;0;0;5;0;3492;2;0;0;0;0;0;6;0;2407;2;0;0;0;0;0;7;0;1458;0;0;0;0;8;0;1472;0;0;0;0;9;0;764;0;0;0;0
07.01.19;21:50:00;1;707;11495;0;2;0;1524;0;0;0;0;3;0;896;0;0;0;0;4;0;1204;0;0;0;0;5;0;3492;2;0;0;0;0;0;6;0;2407;2;0;0;0;0;0;7;0;1458;0;0;0;0;8;0;1472;0;0;0;0;9;0;764;0;0;0;0
07.01.19;21:45:00;1;892;11434;0;2;0;1524;0;0;0;0;3;0;896;0;0;0;0;4;0;1204;0;0;0;0;5;0;3492;2;0;0;0;0;0;6;0;2407;2;0;0;0;0;0;7;0;1458;0;0;0;0;8;0;1472;0;0;0;0;9;0;764;0;0;0;0
07.01.19;21:40:00;1;1116;11365;0;2;0;1524;0;0;0;0;3;0;896;0;0;0;0;4;0;1204;0;0;0;0;5;0;3492;2;0;0;0;0;0;6;0;2407;2;0;0;0;0;0;7;0;1458;0;0;0;0;8;0;1472;0;0;0;0;9;0;764;0;0;0;0
07.01.19;21:35:00;1;976;11264;0;2;0;1524;0;0;0;0;3;0;896;0;0;0;0;4;0;1204;0;0;0;0;5;0;3492;2;0;0;0;0;0;6;0;2407;2;0;0;0;0;0;7;0;1458;0;0;0;0;8;0;1472;0;0;0;0;9;0;764;0;0;0;0
07.01.19;21:30:00;1;604;11196;0;2;0;1524;0;0;0;0;3;0;896;0;0;0;0;4;0;1204;0;0;0;0;5;0;3492;2;0;0;0;0;0;6;0;2407;2;0;0;0;0;0;7;0;1458;0;0;0;0;8;0;1472;0;0;0;0;9;0;764;0;0;0;0
07.01.19;21:25:00;1;543;11147;0;2;0;1524;0;0;0;0;3;0;896;0;0;0;0;4;0;1204;0;0;0;0;5;0;3492;2;0;0;0;0;0;6;0;2407;2;0;0;0;0;0;7;0;1458;0;0;0;0;8;0;1472;0;0;0;0;9;0;764;0;0;0;0
07.01.19;21:20:00;1;658;11100;0;2;0;1524;0;0;0;0;3;0;896;0;0;0;0;4;0;1204;0;0;0;0;5;0;3492;2;0;0;0;0;0;6;0;2407;2;0;0;0;0;0;7;0;1458;0;0;0;0;8;0;1472;0;0;0;0;9;0;764;0;0;0;0
07.01.19;21:15:00;1;1181;11045;0;2;0;1524;0;0;0;0;3;0;896;0;0;0;0;4;0;1204;0;0;0;0;5;0;3492;2;0;0;0;0;0;6;0;2407;2;0;0;0;0;0;7;0;1458;0;0;0;0;8;0;1472;0;0;0;0;9;0;764;0;0;0;0
07.01.19;21:10:00;1;651;10971;0;2;0;1524;0;0;0;0;3;0;896;0;0;0;0;4;0;1204;0;0;0;0;5;0;3492;2;0;0;0;0;0;6;0;2407;2;0;0;0;0;0;7;0;1458;0;0;0;0;8;0;1472;0;0;0;0;9;0;764;0;0;0;0
07.01.19;21:05:00;1;579;10917;0;2;0;1524;0;0;0;0;3;0;896;0;0;0;0;4;0;1204;0;0;0;0;5;0;3492;2;0;0;0;0;0;6;0;2407;2;0;0;0;0;0;7;0;1458;0;0;0;0;8;0;1472;0;0;0;0;9;0;764;0;0;0;0
07.01.19;21:00:00;1;438;10869;0;2;0;1524;0;0;0;0;3;0;896;0;0;0;0;4;0;1204;0;0;0;0;5;0;3492;2;0;0;0;0;0;6;0;2407;2;0;0;0;0;0;7;0;1458;0;0;0;0;8;0;1472;0;0;0;0;9;0;764;0;0;0;0
07.01.19;20:55:00;1;596;10832;0;2;0;1524;0;0;0;0;3;0;896;0;0;0;0;4;0;1204;0;0;0;0;5;0;3492;2;0;0;0;0;0;6;0;2407;2;0;0;0;0;0;7;0;1458;0;0;0;0;8;0;1472;0;0;0;0;9;0;764;0;0;0;0
07.01.19;20:50:00;1;624;10783;0;2;0;1524;0;0;0;0;3;0;896;0;0;0;0;4;0;1204;0;0;0;0;5;0;3492;2;0;0;0;0;0;6;0;2407;2;0;0;0;0;0;7;0;1458;0;0;0;0;8;0;1472;0;0;0;0;9;0;764;0;0;0;0
07.01.19;20:45:00;1;425;10741;0;2;0;1524;0;0;0;0;3;0;896;0;0;0;0;4;0;1204;0;0;0;0;5;0;3492;2;0;0;0;0;0;6;0;2407;2;0;0;0;0;0;7;0;1458;0;0;0;0;8;0;1472;0;0;0;0;9;0;764;0;0;0;0
07.01.19;20:40:00;1;523;10704;0;2;0;1524;0;0;0;0;3;0;896;0;0;0;0;4;0;1204;0;0;0;0;5;0;3492;2;0;0;0;0;0;6;0;2407;2;0;0;0;0;0;7;0;1458;0;0;0;0;8;0;1472;0;0;0;0;9;0;764;0;0;0;0
07.01.19;20:35:00;1;537;10662;0;2;0;1524;0;0;0;0;3;0;896;0;0;0;0;4;0;1204;0;0;0;0;5;0;3492;2;0;0;0;0;0;6;0;2407;2;0;0;0;0;0;7;0;1458;0;0;0;0;8;0;1472;0;0;0;0;9;0;764;0;0;0;0
07.01.19;20:30:00;1;531;10627;0;2;0;1524;0;0;0;0;3;0;896;0;0;0;0;4;0;1204;0;0;0;0;5;0;3492;2;0;0;0;0;0;6;0;2407;2;0;0;0;0;0;7;0;1458;0;0;0;0;8;0;1472;0;0;0;0;9;0;764;0;0;0;0
07.01.19;20:25:00;1;523;10582;0;2;0;1524;0;0;0;0;3;0;896;0;0;0;0;4;0;1204;0;0;0;0;5;0;3492;2;0;0;0;0;0;6;0;2407;2;0;0;0;0;0;7;0;1458;0;0;0;0;8;0;1472;0;0;0;0;9;0;764;0;0;0;0
07.01.19;20:20:00;1;733;10538;0;2;0;1524;0;0;0;0;3;0;896;0;0;0;0;4;0;1204;0;0;0;0;5;0;3492;2;0;0;0;0;0;6;0;2407;2;0;0;0;0;0;7;0;1458;0;0;0;0;8;0;1472;0;0;0;0;9;0;764;0;0;0;0
07.01.19;20:15:00;1;895;10470;0;2;0;1524;0;0;0;0;3;0;896;0;0;0;0;4;0;1204;0;0;0;0;5;0;3492;2;0;0;0;0;0;6;0;2407;2;0;0;0;0;0;7;0;1458;0;0;0;0;8;0;1472;0;0;0;0;9;0;764;0;0;0;0
07.01.19;20:10:00;1;574;10423;0;2;0;1524;0;0;0;0;3;0;896;0;0;0;0;4;0;1204;0;0;0;0;5;0;3492;2;0;0;0;0;0;6;0;2407;2;0;0;0;0;0;7;0;1458;0;0;0;0;8;0;1472;0;0;0;0;9;0;764;0;0;0;0
07.01.19;20:05:00;1;683;10372;0;2;0;1524;0;0;0;0;3;0;896;0;0;0;0;4;0;1204;0;0;0;0;5;0;3492;2;0;0;0;0;0;6;0;2407;2;0;0;0;0;0;7;0;1458;0;0;0;0;8;0;1472;0;0;0;0;9;0;764;0;0;0;0
07.01.19;20:00:00;1;862;10315;0;2;0;1524;0;0;0;0;3;0;896;0;0;0;0;4;0;1204;0;0;0;0;5;0;3492;2;0;0;0;0;0;6;0;2407;2;0;0;0;0;0;7;0;1458;0;0;0;0;8;0;1472;0;0;0;0;9;0;764;0;0;0;0
07.01.19;19:55:00;1;856;10245;0;2;0;1524;0;0;0;0;3;0;896;0;0;0;0;4;0;1204;0;0;0;0;5;0;3492;2;0;0;0;0;0;6;0;2407;2;0;0;0;0;0;7;0;1458;0;0;0;0;8;0;1472;0;0;0;0;9;0;764;0;0;0;0
07.01.19;19:50:00;1;823;10174;0;2;0;1524;0;0;0;0;3;0;896;0;0;0;0;4;0;1204;0;0;0;0;5;0;3492;2;0;0;0;0;0;6;0;2407;2;0;0;0;0;0;7;0;1458;0;0;0;0;8;0;1472;0;0;0;0;9;0;764;0;0;0;0
07.01.19;19:45:00;1;824;10106;0;2;0;1524;0;0;0;0;3;0;896;0;0;0;0;4;0;1204;0;0;0;0;5;0;3492;2;0;0;0;0;0;6;0;2407;2;0;0;0;0;0;7;0;1458;0;0;0;0;8;0;1472;0;0;0;0;9;0;764;0;0;0;0
07.01.19;19:40:00;1;827;10037;0;2;0;1524;0;0;0;0;3;0;896;0;0;0;0;4;0;1204;0;0;0;0;5;0;3492;2;0;0;0;0;0;6;0;2407;2;0;0;0;0;0;7;0;1458;0;0;0;0;8;0;1472;0;0;0;0;9;0;764;0;0;0;0
07.01.19;19:35:00;1;1266;9968;0;2;0;1524;0;0;0;0;3;0;896;0;0;0;0;4;0;1204;0;0;0;0;5;0;3492;2;0;0;0;0;0;6;0;2407;2;0;0;0;0;0;7;0;1458;0;0;0;0;8;0;1472;0;0;0;0;9;0;764;0;0;0;0
07.01.19;19:30:00;1;810;9868;0;2;0;1524;0;0;0;0;3;0;896;0;0;0;0;4;0;1204;0;0;0;0;5;0;3492;2;0;0;0;0;0;6;0;2407;2;0;0;0;0;0;7;0;1458;0;0;0;0;8;0;1472;0;0;0;0;9;0;764;0;0;0;0
07.01.19;19:25:00;1;749;9796;0;2;0;1524;0;0;0;0;3;0;896;0;0;0;0;4;0;1204;0;0;0;0;5;0;3492;2;0;0;0;0;0;6;0;2407;2;0;0;0;0;0;7;0;1458;0;0;0;0;8;0;1472;0;0;0;0;9;0;764;0;0;0;0
07.01.19;19:20:00;1;644;9734;0;2;0;1524;0;0;0;0;3;0;896;0;0;0;0;4;0;1204;0;0;0;0;5;0;3492;2;0;0;0;0;0;6;0;2407;2;0;0;0;0;0;7;0;1458;0;0;0;0;8;0;1472;0;0;0;0;9;0;764;0;0;0;0
07.01.19;19:15:00;1;607;9682;0;2;0;1524;0;0;0;0;3;0;896;0;0;0;0;4;0;1204;0;0;0;0;5;0;3492;2;0;0;0;0;0;6;0;2407;2;0;0;0;0;0;7;0;1458;0;0;0;0;8;0;1472;0;0;0;0;9;0;764;0;0;0;0
07.01.19;19:10:00;1;649;9600;0;2;0;1524;0;0;0;0;3;0;896;0;0;0;0;4;0;1204;0;0;0;0;5;0;3492;2;0;0;0;0;0;6;0;2407;2;0;0;0;0;0;7;0;1458;0;0;0;0;8;0;1472;0;0;0;0;9;0;764;0;0;0;0
07.01.19;19:05:00;1;695;9546;0;2;0;1524;0;0;0;0;3;0;896;0;0;0;0;4;0;1204;0;0;0;0;5;0;3492;2;0;0;0;0;0;6;0;2407;2;0;0;0;0;0;7;0;1458;0;0;0;0;8;0;1472;0;0;0;0;9;0;764;0;0;0;0
07.01.19;19:00:00;1;671;9479;0;2;0;1524;0;0;0;0;3;0;896;0;0;0;0;4;0;1204;0;0;0;0;5;0;3492;2;0;0;0;0;0;6;0;2407;2;0;0;0;0;0;7;0;1458;0;0;0;0;8;0;1472;0;0;0;0;9;0;764;0;0;0;0
07.01.19;18:55:00;1;614;9423;0;2;0;1524;0;0;0;0;3;0;896;0;0;0;0;4;0;1204;0;0;0;0;5;0;3492;2;0;0;0;0;0;6;0;2407;2;0;0;0;0;0;7;0;1458;0;0;0;0;8;0;1472;0;0;0;0;9;0;764;0;0;0;0
07.01.19;18:50:00;1;510;9372;0;2;0;1524;0;0;0;0;3;0;896;0;0;0;0;4;0;1204;0;0;0;0;5;0;3492;2;0;0;0;0;0;6;0;2407;2;0;0;0;0;0;7;0;1458;0;0;0;0;8;0;1472;0;0;0;0;9;0;764;0;0;0;0
07.01.19;18:45:00;1;511;9330;0;2;0;1524;0;0;0;0;3;0;896;0;0;0;0;4;0;1204;0;0;0;0;5;0;3492;2;0;0;0;0;0;6;0;2407;2;0;0;0;0;0;7;0;1458;0;0;0;0;8;0;1472;0;0;0;0;9;0;764;0;0;0;0
07.01.19;18:40:00;1;535;9287;0;2;0;1524;0;0;0;0;3;0;896;0;0;0;0;4;0;1204;0;0;0;0;5;0;3492;2;0;0;0;0;0;6;0;2407;2;0;0;0;0;0;7;0;1458;0;0;0;0;8;0;1472;0;0;0;0;9;0;764;0;0;0;0
07.01.19;18:35:00;1;2254;9219;0;2;0;1524;0;0;0;0;3;0;896;0;0;0;0;4;0;1204;0;0;0;0;5;0;3492;2;0;0;0;0;0;6;0;2407;2;0;0;0;0;0;7;0;1458;0;0;0;0;8;0;1472;0;0;0;0;9;0;764;0;0;0;0
07.01.19;18:30:00;1;505;9042;0;2;0;1524;0;0;0;0;3;0;896;0;0;0;0;4;0;1204;0;0;0;0;5;0;3492;2;0;0;0;0;0;6;0;2407;2;0;0;0;0;0;7;0;1458;0;0;0;0;8;0;1472;0;0;0;0;9;0;764;0;0;0;0
07.01.19;18:25:00;1;498;8999;0;2;0;1524;0;0;0;0;3;0;896;0;0;0;0;4;0;1204;0;0;0;0;5;0;3492;2;0;0;0;0;0;6;0;2407;2;0;0;0;0;0;7;0;1458;0;0;0;0;8;0;1472;0;0;0;0;9;0;764;0;0;0;0
07.01.19;18:20:00;1;473;8958;0;2;0;1524;0;0;0;0;3;0;896;0;0;0;0;4;0;1204;0;0;0;0;5;0;3492;2;0;0;0;0;0;6;0;2407;2;0;0;0;0;0;7;0;1458;0;0;0;0;8;0;1472;0;0;0;0;9;0;764;0;0;0;0
07.01.19;18:15:00;1;472;8918;0;2;0;1524;0;0;0;0;3;0;896;0;0;0;0;4;0;1204;0;0;0;0;5;0;3492;2;0;0;0;0;0;6;0;2407;2;0;0;0;0;0;7;0;1458;0;0;0;0;8;0;1472;0;0;0;0;9;0;764;0;0;0;0
07.01.19;18:10:00;1;471;8879;0;2;0;1524;0;0;0;0;3;0;896;0;0;0;0;4;0;1204;0;0;0;0;5;0;3492;2;0;0;0;0;0;6;0;2407;2;0;0;0;0;0;7;0;1458;0;0;0;0;8;0;1472;0;0;0;0;9;0;764;0;0;0;0
07.01.19;18:05:00;1;514;8840;0;2;0;1524;0;0;0;0;3;0;896;0;0;0;0;4;0;1204;0;0;0;0;5;0;3492;2;0;0;0;0;0;6;0;2407;2;0;0;0;0;0;7;0;1458;0;0;0;0;8;0;1472;0;0;0;0;9;0;764;0;0;0;0
07.01.19;18:00:00;1;519;8797;0;2;0;1524;0;0;0;0;3;0;896;0;0;0;0;4;0;1204;0;0;0;0;5;0;3492;2;0;0;0;0;0;6;0;2407;2;0;0;0;0;0;7;0;1458;0;0;0;0;8;0;1472;0;0;0;0;9;0;764;0;0;0;0
07.01.19;17:55:00;1;536;8754;0;2;0;1524;0;0;0;0;3;0;896;0;0;0;0;4;0;1204;0;0;0;0;5;0;3492;2;0;0;0;0;0;6;0;2407;2;0;0;0;0;0;7;0;1458;0;0;0;0;8;0;1472;0;0;0;0;9;0;764;0;0;0;0
07.01.19;17:50:00;1;654;8709;0;2;0;1524;0;0;0;0;3;0;896;0;0;0;0;4;0;1204;0;0;0;0;5;0;3492;2;0;0;0;0;0;6;0;2407;2;0;0;0;0;0;7;0;1458;0;0;0;0;8;0;1472;0;0;0;0;9;0;764;0;0;0;0
07.01.19;17:45:00;1;940;8661;0;2;0;1524;0;0;0;0;3;0;896;0;0;0;0;4;0;1204;0;0;0;0;5;0;3492;2;0;0;0;0;0;6;0;2407;2;0;0;0;0;0;7;0;1458;0;0;0;0;8;0;1472;0;0;0;0;9;0;764;0;0;0;0
07.01.19;17:40:00;1;589;8587;0;2;0;1524;0;0;0;0;3;0;896;0;0;0;0;4;0;1204;0;0;0;0;5;0;3492;2;0;0;0;0;0;6;0;2407;2;0;0;0;0;0;7;0;1458;0;0;0;0;8;0;1472;0;0;0;0;9;0;764;0;0;0;0
07.01.19;17:35:00;1;652;8538;0;2;0;1524;0;0;0;0;3;0;896;0;0;0;0;4;0;1204;0;0;0;0;5;0;3492;2;0;0;0;0;0;6;0;2407;2;0;0;0;0;0;7;0;1458;0;0;0;0;8;0;1472;0;0;0;0;9;0;764;0;0;0;0
07.01.19;17:30:00;1;595;8485;0;2;0;1524;0;0;0;0;3;0;896;0;0;0;0;4;0;1204;0;0;0;0;5;0;3492;2;0;0;0;0;0;6;0;2407;2;0;0;0;0;0;7;0;1458;0;0;0;0;8;0;1472;0;0;0;0;9;0;764;0;0;0;0
07.01.19;17:25:00;1;603;8435;0;2;0;1524;0;0;0;0;3;0;896;0;0;0;0;4;0;1204;0;0;0;0;5;0;3492;2;0;0;0;0;0;6;0;2407;2;0;0;0;0;0;7;0;1458;0;0;0;0;8;0;1472;0;0;0;0;9;0;764;0;0;0;0
07.01.19;17:20:00;1;606;8384;0;2;0;1524;0;0;0;0;3;0;896;0;0;0;0;4;0;1204;0;0;0;0;5;0;3492;2;0;0;0;0;0;6;0;2407;2;0;0;0;0;0;7;0;1458;0;0;0;0;8;0;1472;0;0;0;0;9;0;764;0;0;0;0
07.01.19;17:15:00;1;585;8334;0;2;0;1524;0;0;0;0;3;0;896;0;0;0;0;4;0;1204;0;0;0;0;5;0;3492;2;0;0;0;0;0;6;0;2407;2;0;0;0;0;0;7;0;1458;0;0;0;0;8;0;1472;0;0;0;0;9;0;764;0;0;0;0
07.01.19;17:10:00;1;828;8283;0;2;0;1524;0;0;0;0;3;0;896;0;0;0;0;4;0;1204;0;0;0;0;5;0;3492;2;0;0;0;0;0;6;0;2407;2;0;0;0;0;0;7;0;1458;0;0;0;0;8;0;1472;0;0;0;0;9;0;764;0;0;0;0
07.01.19;17:05:00;1;669;8213;0;2;0;1524;0;0;0;0;3;0;896;0;0;0;0;4;0;1204;0;0;0;0;5;0;3492;2;0;0;0;0;0;6;0;2407;2;0;0;0;0;0;7;0;1458;0;0;0;0;8;0;1472;0;0;0;0;9;0;764;0;0;0;0
07.01.19;17:00:00;1;584;8157;0;2;0;1524;0;0;0;0;3;0;896;0;0;0;0;4;0;1204;0;0;0;0;5;0;3492;2;0;0;0;0;0;6;0;2407;2;0;0;0;0;0;7;0;1458;0;0;0;0;8;0;1472;0;0;0;0;9;0;764;0;0;0;0
07.01.19;16:55:00;1;595;8108;0;2;0;1524;0;0;0;0;3;0;896;0;0;0;0;4;0;1204;0;0;0;0;5;0;3492;2;0;0;0;0;0;6;0;2407;2;0;0;0;0;0;7;0;1458;0;0;0;0;8;0;1472;0;0;0;0;9;0;764;0;0;0;0
07.01.19;16:50:00;1;411;8058;0;2;0;1524;0;0;0;0;3;0;896;0;0;0;0;4;0;1204;0;0;0;0;5;0;3492;2;0;0;0;0;0;6;0;2407;2;0;0;0;0;0;7;0;1458;0;0;0;0;8;0;1472;0;0;0;0;9;0;764;0;0;0;0
07.01.19;16:45:00;1;273;8026;0;2;0;1524;0;0;71;2;3;0;896;0;0;193;7;4;0;1204;0;0;0;0;5;0;3492;2;0;0;0;0;0;6;0;2407;2;0;0;0;0;0;7;0;1458;0;0;0;0;8;0;1472;0;0;0;0;9;0;764;0;0;0;0
07.01.19;16:40:00;1;242;8003;0;2;0;1524;6;0;271;8;3;0;896;6;0;299;11;4;0;1204;0;0;0;0;5;0;3492;2;0;0;0;0;0;6;0;2407;2;0;0;0;0;0;7;0;1458;0;0;0;0;8;0;1472;0;0;0;0;9;0;764;0;0;0;0
07.01.19;16:35:00;1;226;7983;0;2;0;1524;6;0;294;8;3;0;896;6;0;329;11;4;0;1204;2;0;79;7;5;0;3492;2;0;0;0;0;0;6;0;2407;2;0;0;0;0;0;7;0;1458;0;0;0;0;8;0;1472;0;0;0;0;9;0;764;0;0;0;0
07.01.19;16:30:00;1;221;7964;0;2;0;1524;6;0;315;8;3;0;896;6;0;379;11;4;0;1204;1;0;101;8;5;0;3492;2;0;3;185;183;16;6;0;2407;0;0;0;0;0;3;7;0;1458;0;0;0;0;8;0;1472;0;0;0;0;9;0;764;0;0;0;0
07.01.19;16:25:00;1;221;7945;0;2;0;1524;6;0;339;8;3;0;896;6;0;419;11;4;0;1204;1;0;127;8;5;0;3492;1;0;0;343;341;20;6;0;2407;23;4;3;180;423;18;7;0;1458;0;0;181;8;8;0;1472;0;0;183;7;9;0;764;6;0;280;8
07.01.19;16:20:00;1;220;7927;0;2;0;1524;6;0;386;8;3;0;896;4;2;466;12;4;0;1204;1;0;198;8;5;0;3492;26;0;0;421;621;20;6;0;2407;23;5;4;310;564;19;7;0;1458;6;0;383;12;8;0;1472;6;0;388;11;9;0;764;6;0;406;8
07.01.19;16:15:00;1;297;7908;0;2;0;1524;6;0;409;8;3;3;896;3;7;457;12;4;0;1204;3;0;210;8;5;79;3491;4;15;15;375;595;21;6;0;2407;8;4;1;402;588;19;7;0;1458;6;1;442;12;8;0;1472;6;1;445;12;9;0;764;6;1;481;8
07.01.19;16:10:00;1;450;7880;0;2;4;1524;6;13;391;8;3;1;896;6;5;504;12;4;2;1204;3;2;224;9;5;85;3484;4;23;23;374;595;21;6;0;2407;8;5;4;492;594;20;7;0;1458;4;2;446;12;8;0;1472;4;2;452;12;9;1;763;6;2;495;8
07.01.19;16:05:00;1;1667;7842;0;2;3;1523;6;7;407;8;3;3;896;6;5;506;12;4;0;1204;3;0;225;9;5;93;3477;4;27;27;374;595;21;6;42;2406;4;18;19;460;460;20;7;3;1458;3;5;428;12;8;0;1472;3;4;431;12;9;0;763;6;2;497;8
07.01.19;16:00:00;1;2503;7682;0;2;1;1523;6;6;405;9;3;2;896;6;10;473;12;4;0;1204;3;0;229;9;5;88;3469;4;25;25;374;595;21;6;0;2403;23;4;3;476;596;20;7;5;1458;6;4;427;12;8;2;1472;6;2;453;12;9;3;763;6;2;498;9
07.01.19;15:55:00;1;555;7522;0;2;4;1523;6;11;399;9;3;2;895;6;4;510;12;4;0;1204;3;0;206;9;5;91;3462;4;25;26;375;595;21;6;27;2403;1;23;24;532;505;21;7;0;1457;6;2;458;12;8;2;1472;6;1;461;12;9;1;763;6;1;507;9
07.01.19;15:50:00;1;520;7477;0;2;0;1523;6;0;423;9;3;3;895;4;5;511;12;4;0;1204;3;0;217;9;5;108;3454;4;38;32;374;595;21;6;66;2400;4;32;33;447;414;21;7;0;1457;6;5;454;12;8;4;1472;6;10;438;12;9;0;763;4;2;511;9
07.01.19;15:45:00;1;439;7434;0;2;12;1523;3;19;406;9;3;3;895;3;13;504;12;4;3;1204;3;3;199;9;5;138;3445;4;54;53;374;595;21;6;83;2395;4;36;36;447;414;21;7;5;1457;6;4;481;13;8;1;1472;6;6;483;12;9;1;763;6;10;504;9
07.01.19;15:40:00;1;318;7397;0;2;56;1522;4;80;374;9;3;4;895;6;11;531;12;4;13;1203;3;14;199;9;5;181;3433;4;77;67;375;595;21;6;110;2388;4;64;65;448;414;21;7;0;1457;6;0;515;13;8;0;1472;6;0;496;12;9;3;763;6;7;539;9
07.01.19;15:35:00;1;328;7369;0;2;66;1517;4;91;374;9;3;5;894;6;11;542;12;4;27;1202;3;28;199;9;5;192;3418;4;88;74;375;595;21;6;123;2379;4;68;68;448;414;21;7;22;1457;4;36;445;13;8;23;1472;4;36;448;13;9;3;763;6;7;549;9
07.01.19;15:30:00;1;1169;7342;0;2;52;1511;4;76;363;9;3;4;894;6;10;531;12;4;20;1200;3;21;199;9;5;164;3402;4;66;60;375;595;21;6;99;2368;4;54;53;448;414;21;7;0;1455;6;0;512;13;8;7;1470;6;12;487;13;9;5;762;6;13;504;9
07.01.19;15:25:00;1;2323;7271;0;2;33;1507;4;49;386;9;3;4;894;6;8;535;12;4;11;1198;3;11;199;9;5;157;3389;4;64;58;374;595;21;6;97;2360;4;48;48;448;414;21;7;9;1455;4;14;464;13;8;3;1469;4;7;471;13;9;1;762;6;5;540;9
07.01.19;15:20:00;1;2310;7078;0;2;43;1504;6;63;376;9;3;3;893;6;9;525;12;4;22;1198;3;23;198;10;5;165;3376;4;69;59;375;595;21;6;97;2352;4;47;48;448;414;21;7;7;1454;6;11;477;13;8;11;1469;3;21;453;13;9;1;762;4;5;531;9
07.01.19;15:15:00;1;2302;6885;0;2;97;1501;4;126;373;10;3;17;893;3;28;536;13;4;67;1196;3;69;198;10;5;253;3362;4;123;103;375;595;21;6;156;2344;4;73;71;447;414;21;7;77;1453;4;108;443;14;8;80;1467;4;111;433;13;9;19;762;3;30;508;9
07.01.19;15:10:00;1;2252;6693;0;2;136;1493;4;165;381;10;3;74;891;4;110;498;13;4;98;1190;3;102;221;10;5;327;3340;4;167;131;375;595;21;6;205;2330;4;113;107;448;414;21;7;120;1447;4;148;465;14;8;108;1461;4;149;477;13;9;27;760;6;36;550;9
07.01.19;15:05:00;1;2295;6505;0;2;131;1482;4;160;384;10;3;73;885;4;109;492;13;4;89;1182;3;93;212;10;5;320;3313;4;156;132;375;595;21;6;200;2313;4;99;98;448;414;21;7;111;1437;4;143;442;14;8;110;1452;4;144;457;13;9;23;758;6;33;561;9
07.01.19;15:00:00;1;2630;6303;0;2;165;1471;4;192;382;10;3;95;879;4;129;506;13;4;122;1175;5;127;227;10;5;373;3286;4;183;162;375;595;21;6;234;2296;4;131;124;448;414;21;7;142;1428;4;178;474;14;8;137;1443;4;180;477;13;9;81;756;4;105;504;10
07.01.19;14:55:00;1;2366;6090;0;2;146;1457;4;176;384;10;3;84;871;4;118;488;13;4;97;1165;5;100;218;10;5;334;3255;4;162;137;375;595;21;6;205;2277;4;106;99;448;414;21;7;126;1416;4;168;461;14;8;133;1431;4;169;459;13;9;61;749;4;81;472;10
07.01.19;14:50:00;1;1542;5892;0;2;158;1445;4;186;389;10;3;88;864;4;128;494;13;4;110;1157;5;115;228;10;5;352;3227;4;171;145;375;595;21;6;215;2260;4;115;108;448;414;21;7;126;1405;4;159;444;14;8;128;1420;4;163;449;13;9;41;744;6;55;516;10
07.01.19;14:45:00;1;328;5778;0;2;172;1432;4;202;380;10;3;99;857;4;138;507;13;4;122;1147;5;127;226;10;5;377;3198;4;184;159;375;595;21;6;234;2241;4;126;125;447;414;21;7;158;1395;4;195;466;14;8;161;1409;4;203;452;13;9;56;741;4;72;506;10
07.01.19;14:40:00;1;728;5748;0;2;186;1417;4;216;384;10;3;106;848;4;143;513;13;4;140;1137;5;146;229;10;5;408;3166;4;199;173;392;629;21;6;249;2222;4;120;114;448;414;21;7;166;1382;4;189;457;14;8;164;1396;4;195;443;13;9;54;736;6;68;543;10
07.01.19;14:35:00;1;580;5678;0;2;233;1402;4;265;385;10;3;138;840;4;176;519;13;4;185;1126;5;192;233;10;5;508;3132;4;254;213;405;633;21;6;298;2201;4;111;106;447;414;21;7;213;1368;4;245;470;14;8;211;1382;4;248;470;13;9;114;732;4;141;516;10
07.01.19;14:30:00;1;214;5638;0;2;206;1383;4;237;387;10;3;122;828;4;158;498;13;4;161;1110;5;167;234;10;5;466;3089;4;233;194;399;613;21;6;280;2175;4;145;141;447;414;21;7;171;1350;4;220;466;14;8;183;1364;4;219;467;13;9;100;722;4;127;507;10
07.01.19;14:25:00;1;215;5620;0;2;267;1365;4;299;389;10;3;161;818;4;200;511;13;4;212;1097;5;221;234;10;5;569;3049;4;289;246;402;645;21;6;343;2151;4;159;151;448;414;21;7;257;1335;4;299;450;14;8;266;1348;4;301;467;13;9;145;714;4;172;517;10
07.01.19;14:20:00;1;214;5602;0;2;248;1343;4;279;384;10;3;151;804;4;189;508;13;4;197;1079;5;206;234;10;5;542;3002;4;281;230;408;637;21;6;324;2123;4;162;149;448;414;21;7;229;1314;4;271;460;14;8;230;1326;4;270;473;13;9;127;701;4;155;512;10
07.01.19;14:15:00;1;215;5584;0;2;228;1323;4;260;385;10;3;137;792;4;175;501;13;4;178;1063;5;185;228;10;5;490;2957;4;250;203;407;612;21;6;300;2096;4;156;146;448;414;21;7;232;1295;4;270;453;14;8;239;1307;4;281;463;13;9;129;691;4;155;522;10
07.01.19;14:10:00;1;506;5566;0;2;192;1304;4;223;378;10;3;114;780;4;152;515;13;4;142;1048;5;147;230;10;5;413;2917;4;205;183;374;595;21;6;262;2072;4;125;120;448;414;21;7;185;1276;4;209;484;13;8;189;1287;4;219;474;13;9;102;680;4;128;514;10
07.01.19;14:05:00;1;229;5521;0;2;169;1287;4;195;377;10;3;96;771;4;136;498;13;4;125;1036;5;130;229;10;5;368;2882;4;184;158;375;595;21;6;229;2050;4;93;91;448;414;21;7;147;1260;4;185;445;14;8;150;1271;4;184;447;13;9;78;671;4;103;462;10
07.01.19;14:00:00;1;266;5502;0;2;169;1273;4;198;387;10;3;98;763;4;136;486;13;4;118;1026;5;123;227;10;5;373;2852;4;185;161;377;595;21;6;231;2031;4;120;119;448;414;21;7;161;1248;4;190;466;13;8;157;1259;4;188;474;13;9;84;665;4;109;473;10
07.01.19;13:55:00;1;1619;5476;0;2;188;1259;4;219;382;10;3;108;755;4;147;509;13;4;134;1016;5;139;228;10;5;408;2820;4;205;179;398;595;21;6;253;2011;4;86;88;447;432;21;7;185;1234;4;211;454;13;8;175;1246;4;209;474;13;9;98;658;4;123;501;10
07.01.19;13:50:00;1;1938;5313;0;2;189;1243;4;220;386;10;3;111;746;4;150;509;13;4;139;1004;5;145;230;10;5;415;2786;4;208;180;403;600;21;6;289;1989;4;130;165;447;552;21;7;191;1219;4;224;455;13;8;190;1231;4;224;459;13;9;100;650;4;126;506;10
07.01.19;13:45:00;1;2629;5125;0;2;221;1228;4;262;385;10;3;134;736;4;175;518;13;4;175;993;5;181;230;10;5;502;2750;4;253;213;412;634;21;6;340;1965;4;153;189;447;560;21;7;235;1203;4;274;467;13;8;242;1215;4;274;465;13;9;128;641;4;155;525;10
07.01.19;13:40:00;1;2585;4896;0;2;279;1209;4;313;391;10;3;169;725;4;209;508;13;4;224;978;5;233;235;10;5;592;2708;4;304;257;404;659;21;6;399;1936;4;187;229;448;567;21;7;311;1183;4;354;484;13;8;319;1195;4;357;472;13;9;172;630;4;202;529;10
07.01.19;13:35:00;1;1591;4693;0;2;246;1186;4;278;384;10;3;148;711;4;186;513;13;4;187;960;5;195;235;10;5;511;2658;4;257;217;402;615;21;6;353;1902;4;167;208;448;556;21;7;262;1158;4;294;488;13;8;258;1169;4;303;485;13;9;146;616;4;173;511;10